Location: Banios
(43.0451°N, 0.2335°E)
Time: 20:16:43
(UTC+00:00)

Atlas Centaur 2 - Pass Details

Date: 25 January 2021
Orbit: 459 x 1309 km, 30.4° (Epoch: 02 March)

Event Time Altitude Azimuth Distance (km) Brightness Sun altitude
Exits shadow 04:34:21 29° 189° (S) 1,936 3.9 -30.3°
Maximum altitude 04:35:28 31° 174° (S) 1,923 4.0 -30.1°
Drops below altitude 10° 04:42:22 10° 117° (ESE) 3,249 6.0 -28.9°
Sets 04:45:48 0° 108° (ESE) 4,269 6.9 -28.3°
